When you browse on this site, cookies collect data to enhance your experience and personalize the content and advertising you see.
Visit our Privacy Policy to learn more. By continuing to use the site, you agree to this use of cookies and data.
  • In Hungary
  • List of Countries
  • For 7 days
  • Water Temperature
  • Satellite Maps
  • Weather Map
  • News
  • Weather Widgets
  • user-avatar
    Login

    Hourly Weather Unikow

    Today, 20 May, Monday

    Time Temperature Precipitation Wind Pressure Humidity
    00:00 +14°C° 0 mm 3 mps 733 mmHg 93%
    01:00 +14°C° 0 mm 3 mps 733 mmHg 94%
    02:00 +14°C° 0 mm 3 mps 732 mmHg 95%
    03:00 +14°C° 0 mm 3 mps 732 mmHg 96%
    04:00 +14°C° 0 mm 4 mps 731 mmHg 97%
    05:00 +15°C° 0 mm 4 mps 732 mmHg 92%
    06:00 +16°C° 0 mm 5 mps 732 mmHg 87%
    07:00 +19°C° 0 mm 5 mps 732 mmHg 82%
    08:00 +20°C° 0 mm 6 mps 732 mmHg 76%
    09:00 +22°C° 0 mm 6 mps 732 mmHg 69%
    10:00 +23°C° 0 mm 7 mps 732 mmHg 63%
    11:00 +23°C° 0 mm 7 mps 732 mmHg 60%
    12:00 +24°C° 0 mm 6 mps 732 mmHg 57%
    13:00 +24°C° 0 mm 6 mps 732 mmHg 54%
    14:00 +24°C° 0 mm 6 mps 732 mmHg 57%
    15:00 +23°C° 0 mm 6 mps 732 mmHg 59%
    16:00 +23°C° 0 mm 6 mps 732 mmHg 62%
    17:00 +21°C° 0 mm 5 mps 732 mmHg 69%
    18:00 +20°C° 0 mm 4 mps 732 mmHg 76%
    19:00 +18°C° 0 mm 4 mps 732 mmHg 83%
    20:00 +17°C° 0 mm 3 mps 732 mmHg 84%
    21:00 +16°C° 0 mm 3 mps 732 mmHg 85%
    22:00 +14°C° 0 mm 3 mps 732 mmHg 85%
    23:00 +15°C° 0 mm 2 mps 732 mmHg 85%

    Tomorrow, 21 May, Tuesday

    Time Temperature Precipitation Wind Pressure Humidity
    00:00 +15°C° 0 mm 2 mps 732 mmHg 84%
    01:00 +15°C° 0 mm 1 mps 732 mmHg 83%
    02:00 +15°C° 0 mm 2 mps 732 mmHg 83%
    03:00 +15°C° 0 mm 2 mps 732 mmHg 83%
    04:00 +15°C° 0 mm 2 mps 732 mmHg 83%
    05:00 +15°C° 0.1 mm 2 mps 732 mmHg 83%
    06:00 +15°C° 0.1 mm 2 mps 732 mmHg 83%
    07:00 +16°C° 0.1 mm 2 mps 732 mmHg 83%
    08:00 +16°C° 0.2 mm 2 mps 732 mmHg 81%
    09:00 +17°C° 0.2 mm 2 mps 732 mmHg 78%
    10:00 +18°C° 0.2 mm 2 mps 732 mmHg 75%
    11:00 +17°C° 0.9 mm 2 mps 732 mmHg 79%
    12:00 +16°C° 0.9 mm 2 mps 732 mmHg 84%
    13:00 +16°C° 0.9 mm 2 mps 732 mmHg 88%
    14:00 +16°C° 0.6 mm 2 mps 732 mmHg 89%
    15:00 +14°C° 0.6 mm 3 mps 732 mmHg 91%
    16:00 +14°C° 0.6 mm 3 mps 732 mmHg 92%
    17:00 +14°C° 1.1 mm 3 mps 732 mmHg 93%
    18:00 +13°C° 1.1 mm 3 mps 732 mmHg 93%
    19:00 +13°C° 1.1 mm 3 mps 732 mmHg 93%
    20:00 +13°C° 0.4 mm 3 mps 733 mmHg 93%
    21:00 +13°C° 0.4 mm 3 mps 733 mmHg 93%
    22:00 +13°C° 0.4 mm 3 mps 733 mmHg 93%
    23:00 +12°C° 0.1 mm 3 mps 733 mmHg 93%

    Day after tomorrow, 22 May, Wednesday

    Time Temperature Precipitation Wind Pressure Humidity
    00:00 +13°C° 0.1 mm 2 mps 733 mmHg 93%
    01:00 +13°C° 0.1 mm 2 mps 733 mmHg 93%
    02:00 +13°C° 0 mm 2 mps 733 mmHg 93%
    03:00 +12°C° 0 mm 2 mps 733 mmHg 93%
    04:00 +12°C° 0 mm 2 mps 733 mmHg 92%
    05:00 +12°C° 0 mm 3 mps 733 mmHg 90%
    06:00 +13°C° 0 mm 3 mps 733 mmHg 87%
    07:00 +14°C° 0 mm 4 mps 733 mmHg 85%
    08:00 +15°C° 0.3 mm 4 mps 733 mmHg 81%
    09:00 +18°C° 0.3 mm 4 mps 733 mmHg 77%
    10:00 +19°C° 0.3 mm 4 mps 734 mmHg 72%
    11:00 +17°C° 0.8 mm 5 mps 734 mmHg 76%
    12:00 +16°C° 0.8 mm 5 mps 734 mmHg 79%
    13:00 +16°C° 0.8 mm 5 mps 734 mmHg 82%
    14:00 +15°C° 0.2 mm 5 mps 734 mmHg 84%
    15:00 +15°C° 0.2 mm 5 mps 734 mmHg 86%
    16:00 +15°C° 0.2 mm 5 mps 734 mmHg 87%
    17:00 +14°C° 0.7 mm 5 mps 734 mmHg 89%
    18:00 +14°C° 0.7 mm 6 mps 734 mmHg 91%
    19:00 +13°C° 0.7 mm 6 mps 734 mmHg 93%
    20:00 +13°C° 0.3 mm 6 mps 734 mmHg 93%
    21:00 +12°C° 0.3 mm 5 mps 735 mmHg 94%
    22:00 +12°C° 0.3 mm 5 mps 735 mmHg 94%
    23:00 +11°C° 0.2 mm 6 mps 735 mmHg 94%

    23 May, Thursday

    Time Temperature Precipitation Wind Pressure Humidity
    00:00 +11°C° 0.2 mm 6 mps 735 mmHg 93%
    01:00 +11°C° 0.2 mm 6 mps 735 mmHg 93%
    02:00 +11°C° 0.9 mm 6 mps 735 mmHg 94%
    03:00 +11°C° 0.9 mm 6 mps 735 mmHg 94%
    04:00 +11°C° 0.9 mm 6 mps 735 mmHg 95%
    05:00 +11°C° 0.9 mm 6 mps 736 mmHg 95%
    06:00 +13°C° 0.9 mm 6 mps 736 mmHg 94%
    07:00 +13°C° 0.9 mm 6 mps 736 mmHg 94%
    08:00 +12°C° 0.4 mm 7 mps 737 mmHg 93%
    09:00 +11°C° 0.4 mm 7 mps 737 mmHg 92%
    10:00 +11°C° 0.4 mm 8 mps 738 mmHg 92%
    11:00 +11°C° 0.4 mm 8 mps 738 mmHg 91%
    12:00 +10°C° 0.4 mm 8 mps 738 mmHg 90%
    13:00 +10°C° 0.4 mm 8 mps 739 mmHg 89%
    14:00 +10°C° 0.6 mm 7 mps 739 mmHg 90%
    15:00 +9°C° 0.6 mm 7 mps 739 mmHg 91%
    16:00 +8°C° 0.6 mm 7 mps 739 mmHg 91%
    17:00 +8°C° 0.8 mm 6 mps 739 mmHg 91%
    18:00 +8°C° 0.8 mm 5 mps 739 mmHg 91%
    19:00 +8°C° 0.8 mm 4 mps 739 mmHg 91%
    20:00 +8°C° 0.3 mm 4 mps 740 mmHg 91%
    21:00 +10°C° 0.3 mm 4 mps 740 mmHg 90%
    22:00 +10°C° 0.3 mm 4 mps 740 mmHg 90%
    23:00 +8°C° 0 mm 4 mps 740 mmHg 91%

    24 May, Friday

    Time Temperature Precipitation Wind Pressure Humidity
    00:00 +8°C° 0 mm 4 mps 740 mmHg 92%
    01:00 +9°C° 0 mm 3 mps 740 mmHg 93%
    02:00 +9°C° 0 mm 3 mps 740 mmHg 93%
    03:00 +8°C° 0 mm 3 mps 740 mmHg 93%
    04:00 +8°C° 0 mm 3 mps 739 mmHg 93%
    05:00 +9°C° 0 mm 3 mps 739 mmHg 90%
    06:00 +10°C° 0 mm 3 mps 739 mmHg 86%
    07:00 +11°C° 0 mm 3 mps 739 mmHg 83%
    08:00 +12°C° 0 mm 3 mps 739 mmHg 75%
    09:00 +14°C° 0 mm 3 mps 739 mmHg 67%
    10:00 +16°C° 0 mm 3 mps 739 mmHg 59%
    11:00 +17°C° 0 mm 3 mps 738 mmHg 56%
    12:00 +18°C° 0 mm 3 mps 738 mmHg 53%
    13:00 +18°C° 0 mm 3 mps 737 mmHg 50%
    14:00 +18°C° 0 mm 2 mps 737 mmHg 50%
    15:00 +19°C° 0 mm 2 mps 737 mmHg 50%
    16:00 +19°C° 0 mm 2 mps 736 mmHg 50%
    17:00 +18°C° 0 mm 1 mps 736 mmHg 56%
    18:00 +16°C° 0 mm 1 mps 736 mmHg 62%
    19:00 +14°C° 0 mm 1 mps 735 mmHg 68%
    20:00 +13°C° 0 mm 1 mps 735 mmHg 71%
    21:00 +12°C° 0 mm 1 mps 735 mmHg 75%
    22:00 +10°C° 0 mm 0 mps 735 mmHg 79%
    23:00 +9°C° 0 mm 0 mps 735 mmHg 81%

    25 May, Saturday

    Time Temperature Precipitation Wind Pressure Humidity
    00:00 +9°C° 0 mm 0 mps 735 mmHg 82%
    01:00 +9°C° 0 mm 0 mps 735 mmHg 84%
    02:00 +8°C° 0 mm 0 mps 735 mmHg 84%
    03:00 +8°C° 0 mm 0 mps 735 mmHg 84%
    04:00 +8°C° 0 mm 0 mps 735 mmHg 85%
    05:00 +10°C° 0 mm 0 mps 735 mmHg 80%
    06:00 +12°C° 0 mm 0 mps 735 mmHg 75%
    07:00 +14°C° 0 mm 0 mps 735 mmHg 70%
    08:00 +16°C° 0 mm 0 mps 735 mmHg 65%
    09:00 +17°C° 0 mm 0 mps 735 mmHg 61%
    10:00 +19°C° 0 mm 0 mps 735 mmHg 56%
    11:00 +19°C° 0 mm 0 mps 735 mmHg 54%
    12:00 +20°C° 0 mm 0 mps 735 mmHg 52%
    13:00 +22°C° 0 mm 1 mps 734 mmHg 49%
    14:00 +22°C° 0 mm 1 mps 734 mmHg 49%
    15:00 +22°C° 0 mm 1 mps 734 mmHg 49%
    16:00 +22°C° 0 mm 1 mps 734 mmHg 50%
    17:00 +21°C° 0 mm 1 mps 734 mmHg 56%
    18:00 +19°C° 0 mm 1 mps 734 mmHg 62%
    19:00 +18°C° 0 mm 1 mps 735 mmHg 68%
    20:00 +15°C° 0 mm 1 mps 735 mmHg 74%
    21:00 +14°C° 0 mm 1 mps 735 mmHg 79%
    22:00 +13°C° 0 mm 1 mps 736 mmHg 84%
    23:00 +13°C° 0 mm 1 mps 736 mmHg 84%
    Show more